Yatton Keynell, United Kingdom

5:56 PM GMT on March 19, 2019 (GMT +0000)
Yatton Keynell

Weather History for 03740 - August, 2008

Change the Weather History Date:

Sunday, August 31, 2008

  Actual Average Record
Temperature  
Mean Temperature 58 °F -  
Max Temperature 64 °F 64 °F - ()
Min Temperature 53 °F 49 °F - ()
Degree Days  
Heating Degree Days 6    
Growing Degree Days 8 (Base 50)    
Moisture  
Dew Point 56 °F    
Average Humidity 92    
Maximum Humidity 100    
Minimum Humidity 82    
Precipitation  
Precipitation 0.00 in 0.08 in - ()
Sea Level Pressure  
Sea Level Pressure 29.85 in    
Wind  
Wind Speed 4 mph ()    
Max Wind Speed 13 mph    
Max Gust Speed -    
Visibility 2.8 miles    
Events Fog , Rain    
T = Trace of Precipitation, MM = Missing Value Source: Averaged Metar Reports

Daily Weather History Graph

Daily Weather History Graph

Search for Another Location

Airport or City:

Astronomy

Aug. 31, 2008 Rise Set
Actual Time 6:19 AM BST 7:55 PM BST
Civil Twilight 5:44 AM BST 8:30 PM BST
Nautical Twilight 5:01 AM BST 9:13 PM BST
Astronomical Twilight 4:13 AM BST 10:00 PM BST
Moon 7:02 AM BST (8/31) 7:53 PM BST (8/31)
Length of Visible Light 14h 46m
Length of Day
13h 36m
New Moon, 0% of the Moon is Illuminated
Aug 31
New Moon
Sep 7
First Quarter
Sep 15
Full
Sep 22
Last Quarter
Sep 29
New

Hourly Weather History & Observations

Time (BST) Temp. Dew Point Humidity Pressure Visibility Wind Dir Wind Speed Gust Speed Precip Events Conditions
12:50 AM 59.0 °F 57.2 °F 94% 29.89 in 3.7 mi SW 2.3 mph - N/A   Haze
1:50 AM 59.0 °F 57.2 °F 94% 29.89 in 2.5 mi SSW 1.2 mph - N/A   Haze
2:50 AM 55.4 °F 55.4 °F 100% 29.86 in 1.9 mi ESE 1.2 mph - N/A Fog Fog
4:50 AM 55.4 °F 55.4 °F 100% 29.86 in 0.7 mi Calm Calm - N/A Fog Fog
5:50 AM 55.4 °F 53.6 °F 94% 29.83 in 0.1 mi South 2.3 mph - N/A   Unknown
6:50 AM 53.6 °F 51.8 °F 94% 29.86 in 0.1 mi West 4.6 mph - N/A Fog Fog
7:50 AM 55.4 °F 53.6 °F 94% 29.86 in 0.1 mi SSW 2.3 mph - N/A Fog Fog
8:50 AM 55.4 °F 55.4 °F 100% 29.83 in 0.2 mi North 5.8 mph - N/A Rain Rain
9:50 AM 57.2 °F 57.2 °F 100% 29.86 in 0.9 mi East 6.9 mph - N/A Rain Rain
10:06 AM 57.2 °F 57.2 °F 100% 29.89 in 1.6 mi SE 2.3 mph - N/A Rain Light Rain
10:50 AM 59.0 °F 57.2 °F 94% 29.86 in 1.6 mi NNE 4.6 mph - N/A   Overcast
11:50 AM 60.8 °F 59.0 °F 94% 29.83 in 1.7 mi NW 4.6 mph - N/A   Mostly Cloudy
12:50 PM 60.8 °F 60.8 °F 100% 29.83 in 1.9 mi WNW 6.9 mph - N/A   Mostly Cloudy
1:38 PM 64.4 °F 60.8 °F 88% 29.83 in 2.5 mi WNW 9.2 mph - N/A   Haze
1:50 PM 64.4 °F 60.8 °F 88% 29.83 in 3.1 mi WNW 5.8 mph - N/A   Haze
2:50 PM 64.4 °F 60.8 °F 88% 29.83 in 4.3 mi WNW 5.8 mph - N/A   Haze
3:50 PM 64.4 °F 60.8 °F 88% 29.83 in 4.3 mi West 6.9 mph - N/A   Haze
4:18 PM 64.4 °F 60.8 °F 88% 29.83 in 2.8 mi West 9.2 mph - N/A Rain Light Rain
4:50 PM 60.8 °F 57.2 °F 88% 29.83 in 3.1 mi WSW 9.2 mph - N/A   Overcast
5:13 PM 60.8 °F 57.2 °F 88% 29.83 in 5.6 mi WSW 9.2 mph - N/A   Haze
5:50 PM 59.0 °F 55.4 °F 88% 29.83 in 6.2 mi WSW 9.2 mph - N/A   Mostly Cloudy
6:50 PM 59.0 °F 55.4 °F 88% 29.86 in 6.2 mi WSW 11.5 mph - N/A   Mostly Cloudy
7:50 PM 59.0 °F 55.4 °F 88% 29.86 in 6.2 mi WSW 11.5 mph - N/A   Mostly Cloudy
8:50 PM 57.2 °F 53.6 °F 88% 29.89 in 6.2 mi WSW 12.7 mph - N/A   Mostly Cloudy
9:50 PM 55.4 °F 51.8 °F 88% 29.89 in - WSW 8.1 mph - N/A   Clear
10:50 PM 55.4 °F 50.0 °F 82% 29.89 in - WSW 8.1 mph - N/A   Clear
11:50 PM 53.6 °F 50.0 °F 88% 29.89 in - WSW 6.9 mph - N/A   Clear